Hof Plauen, Germany

12:15 PM CEST on May 21, 2018 (GMT +0200)
Hof-Plauen

Weather History for EDQM - March, 2013

Change the Weather History Date:

Wednesday, March 27, 2013

  Actual Average Record
Temperature  
Mean Temperature 22 °F -  
Max Temperature 27 °F 49 °F 60 °F (2003)
Min Temperature 18 °F 34 °F 18 °F (2013)
Degree Days  
Heating Degree Days 42    
Moisture  
Dew Point 14 °F    
Average Humidity 65    
Maximum Humidity 80    
Minimum Humidity 41    
Precipitation  
Precipitation 0.00 in - - ()
Sea Level Pressure  
Sea Level Pressure 29.82 in    
Wind  
Wind Speed 6 mph ()    
Max Wind Speed 12 mph    
Max Gust Speed -    
Visibility 6.3 miles    
Events Snow    
Averages and records for this station are not official NWS values.
T = Trace of Precipitation, MM = Missing Value Source: Averaged Metar Reports

Daily Weather History Graph

Daily Weather History Graph

Search for Another Location

Airport or City:

Astronomy

Mar. 27, 2013 Rise Set
Actual Time 5:59 AM CET 6:36 PM CET
Civil Twilight 5:27 AM CET 7:09 PM CET
Nautical Twilight 4:48 AM CET 7:48 PM CET
Astronomical Twilight 4:07 AM CET 8:29 PM CET
Moon 7:08 PM CET (3/27) 5:38 AM CET (3/27)
Length of Visible Light 13h 42m
Length of Day
12h 36m
Full, 100% of the Moon is Illuminated
Mar 27
Full
Apr 3
Last Quarter
Apr 10
New
Apr 18
First Quarter
Apr 25
Full

Hourly Weather History & Observations

Time (CET) Temp. Windchill Dew Point Humidity Pressure Visibility Wind Dir Wind Speed Gust Speed Precip Events Conditions
12:00 AM 22 °F - 11 °F 51% 29.95 in 9 mi ENE 6.7 mph - -   Overcast
12:20 AM 23.0 °F 15.8 °F 10.4 °F 59% 29.80 in 6.2 mi ENE 5.8 mph - N/A   Mostly Cloudy
12:50 AM 23.0 °F 17.0 °F 10.4 °F 59% 29.80 in 6.2 mi ENE 4.6 mph - N/A   Partly Cloudy
1:00 AM 22 °F - 12 °F 52% 29.94 in 8 mi ENE 4.5 mph - -   Overcast
1:20 AM 23.0 °F 17.0 °F 10.4 °F 59% 29.80 in 6.2 mi East 4.6 mph - N/A   Mostly Cloudy
1:50 AM 23.0 °F 18.4 °F 10.4 °F 59% 29.80 in 6.2 mi East 3.5 mph - N/A   Overcast
2:00 AM 21 °F - 12 °F 58% 29.94 in 7 mi ENE 4.5 mph - -   Overcast
2:20 AM 23.0 °F 14.7 °F 10.4 °F 59% 29.80 in 6.2 mi East 6.9 mph - N/A   Mostly Cloudy
2:50 AM 21.2 °F 13.6 °F 10.4 °F 63% 29.80 in 6.2 mi East 5.8 mph - N/A   Overcast
3:20 AM 21.2 °F 14.9 °F 10.4 °F 63% 29.80 in 6.2 mi ENE 4.6 mph - N/A   Overcast
3:50 AM 21.2 °F 16.4 °F 10.4 °F 63% 29.80 in 6.2 mi NE 3.5 mph - N/A   Overcast
4:20 AM 21.2 °F 16.4 °F 10.4 °F 63% 29.80 in 6.2 mi NNE 3.5 mph - N/A   Mostly Cloudy
4:50 AM 21.2 °F 16.4 °F 10.4 °F 63% 29.77 in 6.2 mi NNE 3.5 mph - N/A   Mostly Cloudy
5:00 AM 20 °F - 13 °F 62% 29.93 in 8 mi NE 6.7 mph - -   Overcast
5:20 AM 19.4 °F 12.8 °F 10.4 °F 68% 29.77 in 6.2 mi NNE 4.6 mph - N/A   Unknown
5:50 AM 19.4 °F 12.8 °F 10.4 °F 68% 29.77 in 6.2 mi NNE 4.6 mph - N/A   Mostly Cloudy
6:00 AM 19 °F - 13 °F 67% 29.93 in 11 mi NE 4.5 mph - -   Partly Cloudy
6:20 AM 19.4 °F 12.8 °F 10.4 °F 68% 29.77 in 6.2 mi NNE 4.6 mph - N/A   Overcast
6:50 AM 19.4 °F 12.8 °F 10.4 °F 68% 29.77 in 6.2 mi NNE 4.6 mph - N/A   Overcast
7:00 AM 19 °F - 13 °F 69% 29.93 in 11 mi NE 4.5 mph - -   Clear
7:20 AM 19.4 °F 11.5 °F 12.2 °F 74% 29.77 in - NNE 5.8 mph - N/A   Clear
7:50 AM 21.2 °F 13.6 °F 12.2 °F 68% 29.77 in - NE 5.8 mph - N/A   Clear
8:00 AM 20 °F - 13 °F 64% 29.92 in 11 mi NE 6.7 mph - -   Clear
8:20 AM 21.2 °F 13.6 °F 10.4 °F 63% 29.77 in - NE 5.8 mph - N/A   Clear
8:50 AM 23.0 °F 14.7 °F 12.2 °F 63% 29.77 in 6.2 mi NE 6.9 mph - N/A   Mostly Cloudy
9:00 AM 22 °F - 13 °F 56% 29.91 in 11 mi NE 6.7 mph - -   Clear
9:20 AM 23.0 °F 14.7 °F 10.4 °F 59% 29.77 in 6.2 mi NNE 6.9 mph - N/A   Mostly Cloudy
9:50 AM 24.8 °F 16.9 °F 10.4 °F 54% 29.77 in 6.2 mi ENE 6.9 mph - N/A   Scattered Clouds
10:20 AM 24.8 °F 16.9 °F 10.4 °F 54% 29.77 in 6.2 mi NE 6.9 mph - N/A   Partly Cloudy
10:50 AM 26.6 °F 20.0 °F 10.4 °F 51% 29.77 in 6.2 mi ENE 5.8 mph - N/A   Mostly Cloudy
11:00 AM 26 °F - 12 °F 41% 29.89 in 11 mi ENE 6.7 mph - -   Overcast
11:20 AM 28.4 °F 23.3 °F 12.2 °F 51% 29.77 in 6.2 mi ENE 4.6 mph - N/A   Overcast
11:50 AM 26.6 °F 18.2 °F 14.0 °F 59% 29.77 in 6.2 mi East 8.1 mph - N/A Snow Light Snow
12:00 PM 26 °F - 14 °F 46% 29.88 in 9 mi NE 6.7 mph - -   Ice Crystals
12:50 PM 26.6 °F 19.1 °F 14.0 °F 59% 29.77 in 6.2 mi NE 6.9 mph - N/A Snow Light Snow
1:00 PM 26 °F - 16 °F 53% 29.89 in 9 mi NE 6.7 mph - - Snow Light Snow
1:20 PM 26.6 °F 20.0 °F 15.8 °F 64% 29.77 in - ENE 5.8 mph - N/A Snow Light Snow
1:50 PM 26.6 °F 20.0 °F 17.6 °F 69% 29.77 in - NE 5.8 mph - N/A Snow Light Snow
2:00 PM 27 °F - 19 °F 60% 29.88 in 7 mi NE 6.7 mph - - Snow Light Snow
2:20 PM 26.6 °F 19.1 °F 17.6 °F 69% 29.77 in 3.1 mi ENE 6.9 mph - N/A Snow Light Snow
2:50 PM 26.6 °F 20.0 °F 17.6 °F 69% 29.77 in 4.3 mi NE 5.8 mph - N/A Snow Light Snow
3:00 PM 26 °F - 22 °F 76% 29.88 in 2 mi NE 8.9 mph - - Snow Light Snow
3:20 PM 26.6 °F 19.1 °F 17.6 °F 69% 29.77 in 6.2 mi NE 6.9 mph - N/A Snow Light Snow
4:20 PM 26.6 °F 16.8 °F 15.8 °F 64% 29.77 in 6.2 mi ESE 10.4 mph - N/A   Overcast
5:00 PM 26 °F - 17 °F 56% 29.89 in 7 mi ESE 8.9 mph - - Snow Light Snow
5:20 PM 26.6 °F 17.5 °F 17.6 °F 69% 29.77 in 6.2 mi East 9.2 mph - N/A Snow Light Snow
5:50 PM 26.6 °F 16.2 °F 15.8 °F 64% 29.77 in 6.2 mi ESE 11.5 mph - N/A   Overcast
6:00 PM 26 °F - 18 °F 62% 29.90 in 4 mi East 6.7 mph - - Snow Snow
6:20 PM 26.6 °F 17.5 °F 15.8 °F 64% 29.77 in 6.2 mi East 9.2 mph - N/A   Overcast
6:50 PM 24.8 °F 14.0 °F 17.6 °F 74% 29.80 in 6.2 mi East 11.5 mph - N/A Snow Light Snow
7:00 PM 25 °F - 19 °F 69% 29.91 in 4 mi East 6.7 mph - - Snow Snow
7:20 PM 24.8 °F 19.1 °F 17.6 °F 74% 29.80 in 6.2 mi ENE 4.6 mph - N/A   Partly Cloudy
7:50 PM 24.8 °F 16.9 °F 17.6 °F 74% 29.80 in 6.2 mi East 6.9 mph - N/A   Overcast
8:00 PM 25 °F - 19 °F 70% 29.92 in 3 mi East 6.7 mph - -   Light Haze
8:20 PM 24.8 °F 16.9 °F 19.4 °F 80% 29.80 in 4.3 mi East 6.9 mph - N/A Snow Light Snow
8:50 PM 24.8 °F 15.3 °F 17.6 °F 74% 29.80 in 0.6 mi East 9.2 mph - N/A Snow Light Snow
9:00 PM 24 °F - 19 °F 74% 29.93 in 4 mi East 6.7 mph - - Snow Snow
9:20 PM 24.8 °F 15.3 °F 17.6 °F 74% 29.80 in 6.2 mi East 9.2 mph - N/A   Overcast
9:50 PM 23.0 °F 14.7 °F 15.8 °F 74% 29.80 in 6.2 mi East 6.9 mph - N/A   Scattered Clouds
10:20 PM 23.0 °F 17.0 °F 17.6 °F 80% 29.80 in 5.6 mi East 4.6 mph - N/A Snow Light Snow
10:50 PM 23.0 °F 14.7 °F 17.6 °F 80% 29.80 in 6.2 mi East 6.9 mph - N/A Snow Light Snow
11:00 PM 23 °F - 19 °F 80% 29.92 in 3 mi East 4.5 mph - - Snow Snow Grains
11:20 PM 24.8 °F 16.9 °F 17.6 °F 74% 29.80 in 3.7 mi East 6.9 mph - N/A Snow Light Snow
11:50 PM 24.8 °F 16.9 °F 17.6 °F 74% 29.80 in 4.3 mi ESE 6.9 mph - N/A Snow Light Snow